Find STARLINK-37946

NORAD ID: 799501023 Int'l Des: 2026-143Z Constellation: starlink operational

Current View

Loading 3D Globe...

About STARLINK-37946

STARLINK-37946 (NORAD 799501023) is a starlink constellation satellite launched Jun 12, 2026

About STARLINK-37946

Description loading...

Upcoming Passes

Passes for default location (London). Set your location on the main map for personalized predictions.

Altitude History

Loading altitude history...

Two-Line Element Set

1 99999C 2026143Z 26172.87618056 .00532890 00000-0 825170-4 0 1729
2 99999 97.2826 215.7080 0010904 273.1997 186.0037 16.03794143 10
Epoch: Jun 21, 2026 • Age: 9 hours